Home > Weather > Gjøvik > Past weeks

Flag for Norway Past Weather in Gjøvik, Norway — Yesterday and Last 2 Weeks

Now
51 °F

Cool.


Feels Like: 51 °F
Forecast: 44 / 53 °F
Wind: 2 mph from East

Location: Lillehammer-Saetherengen

Current Time: May 29, 2016 at 12:11:08 AM

Latest Report: May 28, 2016 at 11:00 PM


Visibility: N/A

Pressure: 30.22 "Hg

Humidity: 74%

Dew Point: 43 °F

Location of GjøvikLocation

Past Weather in Gjøvik — Graph

°F

Gjøvik Temperature Yesterday

Maximum temperature yesterday: 58 °F (at 8:00 PM)
Minimum temperature yesterday: 49 °F (at 6:00 AM)
Average temperature yesterday: 52 °F

High & Low Weather Summary for the Past Weeks

 TemperatureHumidityPressure
High69 °F (May 27, 4:00 PM)96% (May 19, 7:00 AM)30.23 "Hg (May 19, 7:00 AM)
Low35 °F (May 14, 5:00 AM)20% (May 16, 7:00 PM)29.61 "Hg (May 17, 7:00 PM)
Average51 °F64%29.88 "Hg
* Reported May 13 10:00 PM — May 28 10:00 PM, Gjøvik, Weather by CustomWeather, © 2016

Note: Actual official high and low records may vary slightly from our data, if they occured in-between our weather recording intervals... More about our weather records

Advertising

Gjøvik Weather History for the Previous 24 Hours

Scroll right to see more
 ConditionsComfort  
Time TempWeatherWind HumidityBarometerVisibility
10:00 PM
Sat, May 28
52 °FCool.1 mph73%30.21 "HgN/A
9:00 PM57 °FCool.2 mph63%30.19 "HgN/A
8:00 PM58 °FCool.2 mph64%30.18 "HgN/A
3:00 PM56 °FCool.2 mph65%30.17 "HgN/A
2:00 PM53 °FCool.3 mph70%30.17 "HgN/A
1:00 PM53 °FCool.2 mph78%30.18 "HgN/A
12:00 PM53 °FCool.3 mph75%30.18 "HgN/A
11:00 AM53 °FCool.2 mph71%30.19 "HgN/A
10:00 AM52 °FCool.1 mph79%30.19 "HgN/A
9:00 AM51 °FCool.1 mph85%30.20 "HgN/A
8:00 AM51 °FCool.No wind84%30.20 "HgN/A
7:00 AM50 °FCool.1 mph87%30.20 "HgN/A
6:00 AM49 °FCool.1 mph89%30.20 "HgN/A
5:00 AM50 °FCool.No wind90%30.22 "HgN/A
4:00 AM50 °FCool.2 mph89%30.22 "HgN/A
3:00 AM51 °FCool.1 mph83%30.21 "HgN/A
2:00 AM52 °FCool.No wind83%30.21 "HgN/A
1:00 AM53 °FCool.No wind72%30.20 "HgN/A
12:00 AM54 °FCool.2 mph69%30.20 "HgN/A
Weather by CustomWeather, © 2016

See weather overviewHow to use our weather pages